Location: Alterlie Bay
(57.5167°N, 4.1167°W)
Time: 01:19:47
(UTC+00:00)

Daily predictions for brighter satellites

Satellite Brightness Start Highest point End
(mag) Time Altitude Azimuth Time Altitude Azimuth Time Altitude Azimuth
Terra 4.3 00:00:10 10° W 00:01:33 11° W 00:02:56 10° WNW
ATLAS CENTAUR R/B 0.2 00:00:19 10° W 00:02:09 74° SSW 00:04:51 10° ESE
SL-4 R/B 2.8 00:01:50 13° SW 00:02:51 17° W 00:04:24 10° NW
STARLINK-1215 3.5 00:00:37 10° WSW 00:03:30 34° S 00:06:24 10° ESE
Cosmos 1536 Rocket 3.7 00:00:57 16° S 00:04:17 65° E 00:08:37 10° NNE
STARLINK-1225 4.3 00:00:46 10° SW 00:04:30 33° SSE 00:08:13 10° E
STARLINK-1217 3.5 00:02:23 10° WSW 00:05:16 34° S 00:08:08 10° ESE
STARLINK-1229 3.5 00:03:18 10° WSW 00:06:11 34° S 00:09:04 10° ESE
STARLINK-1271 3.9 00:02:49 10° WSW 00:06:47 45° S 00:10:45 10° ESE
STARLINK-1270 3.5 00:04:10 10° WSW 00:07:03 34° S 00:09:56 10° ESE
Cosmos 292 Rocket 4.2 00:03:39 16° S 00:07:20 50° ESE 00:12:04 10° NE
S3M 4.1 00:01:16 10° NNW 00:07:23 70° W 00:12:36 15° S
Lacrosse 4 Rocket 4.2 00:04:17 10° NW 00:07:56 24° NNE 00:11:30 10° ENE
Cosmos 1726 2.1 00:04:27 10° NNW 00:08:10 83° WSW 00:10:54 17° S
Cosmos 1544 Rocket 4.5 00:04:23 10° NNW 00:08:23 37° W 00:11:44 14° SSW
STARLINK-1189 3.5 00:06:00 10° WSW 00:08:53 34° S 00:11:45 10° ESE
Cosmos 2058 Rocket 4.4 00:05:01 10° N 00:09:04 34° ENE 00:13:07 10° SE
STARLINK-1230 4.3 00:05:40 10° SW 00:09:25 34° SSE 00:13:11 10° E
STARLINK-1188 3.5 00:06:52 10° WSW 00:09:45 34° S 00:12:38 10° ESE
STARLINK-1235 3.5 00:07:33 10° WSW 00:10:22 32° S 00:13:12 10° ESE
STARLINK-1187 3.5 00:07:59 10° WSW 00:10:49 33° S 00:13:39 10° ESE
SL-27 R/B 3.8 00:07:47 10° NW 00:10:58 29° WSW 00:13:10 16° SSW
STARLINK-1154 3.9 00:07:46 10° WSW 00:11:45 45° S 00:15:43 10° ESE
Cosmos 2228 3.5 00:07:32 10° N 00:11:47 56° ENE 00:15:32 13° SSE
SJ 16-02 3.9 00:08:47 10° N 00:12:09 20° NE 00:15:29 10° E
STARLINK-1191 3.5 00:09:21 10° WSW 00:12:12 33° S 00:15:03 10° ESE
Cosmos 1655 Rocket 4.0 00:07:30 15° S 00:12:51 80° E 00:19:09 10° NNE
STARLINK-1221 3.5 00:10:14 10° WSW 00:13:04 33° S 00:15:55 10° ESE
GEOS 3 Rocket 3.6 00:08:34 10° SE 00:13:47 72° SW 00:19:08 10° NW
STARLINK-1222 3.5 00:11:07 10° WSW 00:13:58 33° S 00:16:48 10° ESE
STARLINK-1243 4.2 00:10:36 10° SW 00:14:22 35° SSE 00:18:10 10° E
STARLINK-1214 3.5 00:12:02 10° WSW 00:14:52 33° S 00:17:43 10° ESE
COSMOS 2455 4.3 00:11:40 11° SSE 00:15:42 22° ESE 00:20:10 10° ENE
Cosmos 1953 2.5 00:12:28 10° NNW 00:16:29 64° W 00:19:26 17° S
STARLINK-1197 3.9 00:12:43 10° WSW 00:16:42 45° S 00:20:40 10° ESE
Cosmos 1340 Rocket 2.8 00:14:01 10° NNW 00:18:02 75° W 00:21:08 17° S
STARLINK-1236 4.2 00:15:31 10° SW 00:19:20 36° SSE 00:23:09 10° E
Cosmos 1300 4.3 00:17:29 10° N 00:20:54 29° ENE 00:24:17 10° SE
STARLINK-1198 3.9 00:17:39 10° WSW 00:21:38 45° S 00:25:36 10° ESE
NOSS 8 (F) 4.4 00:19:23 10° WSW 00:22:25 73° NNW 00:25:43 10° NE
Cosmos 1461 3.0 00:20:09 10° SW 00:24:25 90° NNW 00:28:55 10° NE
COSMOS 2487 2.3 00:21:03 10° NNW 00:24:32 83° WSW 00:27:18 15° SSE
Cosmos 1271 Rocket 2.8 00:21:40 16° SSW 00:24:41 76° WNW 00:28:38 10° NNE
Cosmos 1833 4.5 00:19:35 10° NW 00:25:05 53° WSW 00:29:45 14° S
STARLINK-1199 3.9 00:22:39 10° WSW 00:26:38 45° S 00:30:36 10° ESE
Cosmos 2219 4.2 00:23:27 10° NNW 00:28:59 48° NE 00:34:28 10° ESE
STARLINK-1269 4.1 00:25:22 10° SW 00:29:13 38° SSE 00:33:04 10° E
Cosmos 1992 Rocket 4.3 00:25:15 15° S 00:29:20 53° ESE 00:34:25 10° NE
STARLINK-1210 3.9 00:27:36 10° WSW 00:31:34 45° S 00:35:32 10° ESE
Cosmos 1707 2.9 00:29:05 15° SSW 00:32:12 67° WNW 00:36:07 10° N
STARLINK-1200 4.1 00:30:19 10° SW 00:34:12 39° SSE 00:38:04 10° E
Cosmos 1606 Rocket 3.5 00:30:51 10° NNW 00:35:12 89° ENE 00:38:48 15° SSE
STARLINK-1219 3.9 00:32:33 10° WSW 00:36:31 45° S 00:40:30 10° ESE
Cosmos 1626 4.0 00:34:42 10° SE 00:37:37 22° E 00:40:33 10° NE
Cosmos 1656 Rocket 4.2 00:33:51 15° S 00:38:18 48° ESE 00:43:38 10° NE
STARLINK-1192 4.1 00:35:16 10° WSW 00:39:09 40° SSE 00:43:02 10° E
In-Cosmos 22 4.1 00:35:37 15° S 00:40:03 78° ESE 00:45:21 10° NNE
Meteor 1-16 Rocket 4.5 00:35:15 10° NNW 00:40:49 58° W 00:45:20 15° S
STARLINK-1211 3.9 00:37:30 10° WSW 00:41:28 45° S 00:45:26 10° ESE
CZ-4 R/B 4.1 00:36:39 10° NNE 00:41:29 59° ESE 00:45:23 15° S
STARLINK-1244 4.0 00:40:11 10° WSW 00:44:05 40° SSE 00:47:59 10° E
Cosmos 2297 Rocket 3.1 00:39:09 10° NNW 00:44:40 50° NE 00:50:10 10° ESE
STARLINK-1245 3.9 00:42:29 10° WSW 00:46:27 44° S 00:50:24 10° ESE
ERBS 2.1 00:43:33 10° WSW 00:46:52 76° S 00:50:13 10° E
APEX 4.4 00:42:04 13° SSW 00:47:46 64° ESE 00:53:02 10° NE
NOSS 2-2 (D) 3.3 00:44:53 10° SW 00:48:36 86° SSE 00:53:12 10° ENE
Cosmos 1242 Rocket 3.9 00:45:36 10° SW 00:48:57 34° WNW 00:52:22 10° N
Cosmos 2292 Rocket 3.3 00:45:34 15° SSW 00:49:01 76° WNW 00:52:27 10° N
STARLINK-1138 4.0 00:45:08 10° WSW 00:49:03 41° S 00:52:57 10° E
PSLV R/B 3.9 00:45:31 10° NNE 00:50:11 63° ESE 00:53:53 15° S
SL-4 R/B 4.2 00:49:12 13° SSE 00:50:52 15° SE 00:53:29 10° ESE
STARLINK-1233 3.9 00:47:26 10° WSW 00:51:24 44° S 00:55:21 10° ESE
STARLINK-1203 4.0 00:47:41 10° WSW 00:51:40 42° S 00:55:39 10° E
Aureole 3 3.9 00:48:50 10° NNW 00:52:39 40° W 00:55:01 16° SSW
STARLINK-1143 4.0 00:50:05 10° WSW 00:54:00 42° S 00:57:55 10° E
Cosmos 1674 2.7 00:53:21 16° S 00:56:13 75° E 01:00:00 10° NNE
STARLINK-1204 3.9 00:52:25 10° W 00:56:22 43° S 01:00:19 10° ESE
Cosmos 1777 Rocket 4.0 00:51:15 10° NNW 00:56:29 77° WSW 01:01:43 10° SSE
Timation 2 Rocket 4.0 00:50:08 10° NW 00:56:39 80° SW 01:02:51 10° SSE
STARLINK-1241 4.0 00:55:02 10° WSW 00:58:57 43° S 01:02:53 10° E
ATLAS CENTAUR R/B 3.0 00:56:56 13° SSE 00:59:37 22° ESE 01:02:49 10° ENE
SeaSat 1 4.0 00:55:11 10° NNE 00:59:40 35° NW 01:04:08 10° W
STARLINK-1238 3.9 00:57:21 10° W 01:01:18 43° S 01:05:14 10° ESE
NOSS 3-4 (A) 4.0 00:57:31 14° SSW 01:02:23 44° SE 01:08:28 10° ENE
NOSS 3-4 (C) 4.0 00:57:38 14° SSW 01:02:29 44° SE 01:08:34 10° ENE
Cosmos 1455 4.5 01:00:14 10° N 01:03:11 21° ENE 01:06:08 10° ESE
ATLAS 3B R/B 2.9 00:57:13 10° NW 01:03:45 54° SW 01:10:29 10° SSE
STARLINK-1239 3.9 00:59:57 10° WSW 01:03:54 43° S 01:07:52 10° E
SL-16 R/B 3.0 00:58:05 10° SE 01:04:08 63° ENE 01:10:16 10° NNW
Spot 1 4.3 01:00:54 11° SSE 01:05:25 87° WSW 01:10:25 10° NNW
Cosmos 2266 Rocket 4.2 01:00:43 13° SSW 01:06:16 65° WNW 01:12:19 10° N
STARLINK-1201 3.9 01:02:20 10° W 01:06:16 42° S 01:10:12 10° ESE
CENTAUR R/B 3.8 01:00:01 10° WNW 01:07:08 38° WSW 01:14:47 10° S
NOSS 2-2 (E) 3.8 01:03:48 10° WSW 01:07:38 70° NNW 01:12:30 10° ENE
STARLINK-1240 3.9 01:04:55 10° WSW 01:08:52 44° S 01:12:50 10° ESE
STARLINK-1206 4.0 01:07:18 10° W 01:11:14 41° S 01:15:09 10° ESE
Cosmos 1867 4.3 01:07:17 10° WNW 01:12:12 35° WSW 01:16:44 12° S
Cosmos 1908 4.0 01:08:45 10° NNW 01:12:20 38° W 01:15:09 15° SSW
STARLINK-1216 3.9 01:09:52 10° WSW 01:13:49 44° S 01:17:47 10° ESE
STARLINK-1205 4.0 01:12:16 10° W 01:16:11 41° SSW 01:20:05 10° ESE
Cosmos 1892 Rocket 3.7 01:14:51 14° S 01:18:39 74° E 01:23:04 10° NNE
STARLINK-1237 3.9 01:14:50 10° WSW 01:18:48 45° S 01:22:46 10° ESE
Cosmos 2227 Rocket 2.6 01:14:43 10° NW 01:20:25 67° NE 01:26:05 10° SE
Cosmos 1356 Rocket 3.6 01:16:57 10° NNW 01:21:05 70° ENE 01:25:14 10° SSE
STARLINK-1218 4.0 01:17:14 10° W 01:21:07 40° SSW 01:25:01 10° ESE
RESURS DK-1 3.9 01:19:17 11° SSE 01:22:33 25° ESE 01:25:57 10° ENE
Cosmos 1726 Rocket 4.1 01:19:08 10° NNW 01:23:15 44° W 01:26:46 14° SSW
STARLINK-1202 3.9 01:19:48 10° WSW 01:23:46 45° S 01:27:44 10° ESE
CZ-2D R/B 3.3 01:19:53 10° NNE 01:24:42 34° E 01:29:26 10° SSE
Helios 1B rocket 2.6 01:21:25 10° NNE 01:25:32 66° WNW 01:29:11 13° SSW
STARLINK-1254 4.0 01:22:12 10° W 01:26:05 39° SSW 01:29:58 10° SE
ADEOS II 4.3 01:23:20 10° NE 01:26:54 18° E 01:30:27 10° SE
Meteor 1-24 Rocket 3.8 01:22:03 12° S 01:26:57 69° E 01:32:23 10° NNE
Cosmos 2369 Rocket 2.6 01:21:27 10° SW 01:27:05 61° NW 01:32:43 10° NE
NOSS 2-2 (C) 3.9 01:26:42 10° WSW 01:30:30 62° NNW 01:35:17 10° ENE
STARLINK-1231 4.1 01:27:12 10° W 01:31:04 38° SSW 01:34:55 10° SE
ATLAS 2AS CENTAUR R/B 3.2 01:23:17 10° SW 01:31:09 67° SE 01:38:55 10° NE
STARLINK-1228 4.4 01:30:01 10° WSW 01:32:28 19° SSW 01:34:56 10° SSE
KORONAS-FOTON 4.2 01:30:16 13° SSW 01:33:31 53° WNW 01:37:18 10° N
STARLINK-1246 3.9 01:29:42 10° WSW 01:33:40 45° S 01:37:38 10° ESE
STARLINK-1234 4.4 01:31:31 10° WSW 01:33:43 18° SSW 01:35:55 10° SSE
Resurs 1-4 Rocket 3.1 01:29:33 10° NNE 01:34:33 40° E 01:39:32 10° SSE
STARLINK-1212 4.2 01:32:49 10° WSW 01:35:10 20° SSW 01:37:32 10° SSE
CZ-4C R/B 3.5 01:31:07 10° SSE 01:35:21 87° WSW 01:39:48 10° NNW
STARLINK-1105 4.2 01:33:18 10° WSW 01:35:38 20° SSW 01:37:58 10° SSE
STARLINK-1209 4.5 01:33:49 10° WSW 01:35:58 17° SSW 01:38:08 10° SSE
STARLINK-1232 4.1 01:32:10 10° W 01:36:01 37° SSW 01:39:51 10° SE
STARLINK-1247 4.2 01:34:11 10° WSW 01:36:33 20° SSW 01:38:55 10° SSE
STARLINK-1227 4.2 01:34:40 10° WSW 01:37:00 19° SSW 01:39:19 10° SSE
Cosmos 1943 Rocket 3.1 01:32:23 10° WSW 01:37:44 46° NW 01:43:09 10° NNE
STARLINK-1226 4.2 01:35:31 10° WSW 01:37:52 20° SSW 01:40:12 10° SSE
DELTA 2 DEB (DPAF) 4.3 01:34:11 10° S 01:38:32 62° WSW 01:43:00 10° NNW
STARLINK-1224 3.9 01:34:39 10° WSW 01:38:38 45° S 01:42:36 10° ESE
STARLINK-1215 4.3 01:36:28 10° WSW 01:38:48 19° SSW 01:41:08 10° SSE
Meteor 2-5 Rocket 3.8 01:35:17 12° SSW 01:40:26 80° WNW 01:46:06 10° NNE
STARLINK-1217 4.3 01:38:15 10° WSW 01:40:33 19° SSW 01:42:51 10° SSE
STARLINK-1208 4.1 01:37:07 10° W 01:40:57 36° SSW 01:44:46 10° SE
STARLINK-1229 4.3 01:39:10 10° WSW 01:41:28 19° SSW 01:43:46 10° SSE
STARLINK-1270 4.3 01:40:02 10° WSW 01:42:19 19° SSW 01:44:37 10° SSE
STARLINK-1225 3.9 01:39:37 10° WSW 01:43:36 45° S 01:47:35 10° ESE
STARLINK-1189 4.3 01:41:53 10° WSW 01:44:09 18° SSW 01:46:25 10° SSE
Meteor 1-29 3.3 01:40:49 10° N 01:44:11 55° WNW 01:47:11 12° SW
STARLINK-1188 4.3 01:42:46 10° WSW 01:45:02 18° SSW 01:47:17 10° SSE
STARLINK-1235 4.5 01:43:36 10° WSW 01:45:36 16° SSW 01:47:36 10° SSE
Cosmos 1898 Rocket 3.9 01:40:23 10° NNW 01:45:45 71° ENE 01:51:05 10° SE
STARLINK-1271 4.2 01:42:07 10° W 01:45:55 35° SSW 01:49:42 10° SE
STARLINK-1187 4.4 01:43:57 10° WSW 01:46:04 17° SSW 01:48:10 10° SSE
Cosmos 2058 Rocket 3.8 01:43:00 10° NNW 01:47:08 40° W 01:51:01 11° SSW
STARLINK-1191 4.4 01:45:17 10° WSW 01:47:28 18° SSW 01:49:39 10° SSE
Lacrosse 4 Rocket 2.5 01:43:12 10° NW 01:47:32 51° NE 01:51:45 10° ESE
STARLINK-1221 4.4 01:46:09 10° WSW 01:48:19 18° SSW 01:50:30 10° SSE
STARLINK-1230 3.9 01:44:34 10° WSW 01:48:33 45° S 01:52:31 10° ESE
Cosmos 2228 4.5 01:45:37 10° NW 01:49:01 23° W 01:52:21 10° SW
STARLINK-1222 4.4 01:47:03 10° WSW 01:49:13 17° SSW 01:51:23 10° SSE
Starlink 7 placeholder 4.3 01:49:43 10° SSE 01:49:48 10° SSE 01:50:11 10° SE
STARLINK-1214 4.4 01:47:59 10° WSW 01:50:07 17° SSW 01:52:15 10° SSE
STARLINK-1154 4.2 01:47:06 10° W 01:50:52 34° SSW 01:54:38 10° SE
SJ 16-02 1.5 01:47:00 10° NNW 01:51:27 80° ENE 01:55:54 10° SSE
STARLINK-1243 3.9 01:49:32 10° WSW 01:53:31 45° S 01:57:29 10° ESE
STARLINK-1197 4.3 01:52:04 10° W 01:55:49 33° SSW 01:59:33 10° SE
Cosmos 1937 Rocket 4.0 01:50:48 10° NNW 01:56:01 66° NE 02:01:15 10° SE
CZ-4C R/B 4.4 01:54:34 10° SE 01:56:28 12° ESE 01:58:29 10° E
Cosmos 1300 3.5 01:53:05 10° NNW 01:56:38 37° W 02:00:00 11° SSW
SL-14 R/B 3.3 01:54:05 12° SSW 01:57:42 68° WNW 02:01:35 10° N
SL-08 ROCKET BODY 4.5 01:52:23 10° S 01:58:15 76° E 02:04:07 10° NNE
Meteor 2-10 Rocket 3.7 01:53:00 10° NNW 01:58:28 80° ENE 02:03:42 10° SSE
STARLINK-1236 3.9 01:54:30 10° WSW 01:58:28 45° S 02:02:26 10° ESE
STARLINK-1198 4.3 01:57:01 10° W 02:00:44 32° SSW 02:04:26 10° SE
COSMOS 2455 2.9 01:54:48 10° SW 02:00:49 76° SE 02:06:52 10° NE
Okean 1-7 Rocket 4.0 01:59:29 11° SSW 02:03:47 57° WNW 02:08:16 10° N
Cosmos 921 Rocket 3.2 02:00:21 10° SSW 02:04:33 68° ESE 02:08:52 10° NNE
STARLINK-1199 4.4 02:02:02 10° W 02:05:43 31° SSW 02:09:23 10° SE
Cosmos 1174 3.6 02:03:36 11° SW 02:06:47 70° SE 02:10:48 10° NE
STARLINK-1269 3.9 02:04:25 10° WSW 02:08:22 44° S 02:12:19 10° ESE
Cosmos 1709 Rocket 4.5 02:03:09 10° S 02:09:06 59° E 02:15:09 10° NNE
STARLINK-1210 4.4 02:07:00 10° W 02:10:39 30° SSW 02:14:17 10° SE
Cosmos 1626 Rocket 3.6 02:06:54 10° S 02:11:13 87° ESE 02:15:36 10° NNE
STARLINK-60 4.4 02:08:52 11° SSW 02:11:15 22° SSE 02:13:49 10° ESE
Cosmos 1626 2.7 02:09:04 10° SSW 02:12:39 46° WNW 02:16:16 10° N
Cosmos 2219 3.4 02:07:46 10° NW 02:13:17 52° WSW 02:18:43 10° S
STARLINK-1200 4.0 02:09:24 10° WSW 02:13:21 44° S 02:17:18 10° ESE
STARLINK-1219 4.5 02:11:59 10° W 02:15:35 29° SSW 02:19:11 10° SE
STARLINK-1192 4.0 02:14:22 10° W 02:18:18 43° S 02:22:15 10° ESE
Cosmos 1656 Rocket 4.4 02:16:28 10° WSW 02:21:57 50° NW 02:27:23 10° NNE
ERBS 2.2 02:19:48 10° W 02:23:08 74° S 02:26:29 10° ESE
STARLINK-1244 4.0 02:19:19 10° W 02:23:15 42° S 02:27:10 10° ESE
Nadezhda 1 Rocket 4.4 02:17:44 10° NNW 02:23:36 48° W 02:29:30 10° SSW
Cosmos 1812 Rocket 3.9 02:21:56 10° NNW 02:26:17 50° W 02:30:37 10° S
AQUA 4.1 02:21:38 10° NNE 02:26:25 68° ESE 02:31:09 10° S
UNK 4.3 02:23:05 10° SSW 02:27:26 41° W 02:31:49 10° NNW
ERS-2 3.2 02:24:06 10° SE 02:27:39 49° ENE 02:31:14 10° N
Cosmos 220 Rocket 4.2 02:23:16 10° SSW 02:27:39 76° ESE 02:32:08 10° NNE
Cosmos 1437 3.1 02:25:04 10° SW 02:27:59 47° WNW 02:30:55 10° N
STARLINK-1138 4.0 02:24:17 10° W 02:28:12 42° S 02:32:07 10° ESE
Cosmos 2297 Rocket 2.5 02:23:22 10° NW 02:28:48 49° WSW 02:34:13 10° S
CZ-4B R/B 3.7 02:23:49 10° NNE 02:28:56 73° ESE 02:34:09 10° S
SL-4 R/B 3.3 02:25:23 10° SW 02:29:38 32° SSE 02:33:47 10° E
STARLINK-1203 4.1 02:27:05 10° W 02:31:03 42° S 02:35:02 10° ESE
Cosmos 2082 3.7 02:26:54 10° NW 02:32:37 76° WSW 02:38:14 10° SSE
STARLINK-1143 4.1 02:29:15 10° W 02:33:10 41° S 02:37:04 10° ESE
Cosmos 990 Rocket 4.2 02:29:32 10° NW 02:34:43 57° WSW 02:39:51 10° S
CBERS-1 4.5 02:30:40 10° NNE 02:35:46 61° ESE 02:40:50 10° S
